Location: Newark
(43.6583°N, 1.6617°E)
Time: 18:06:39
(UTC+00:00)

Tiros 1 - Pass Details

Date: 03 September 2019
Orbit: 630 x 664 km, 48.4° (Epoch: 17 October)

Event Time Altitude Azimuth Distance (km) Brightness Sun altitude
Rises 23:47:44 0° 293° (WNW) 2,918 - -39.0°
Reaches altitude 10° 23:50:04 10° 295° (WNW) 2,009 - -39.0°
Maximum altitude 23:54:42 76° 22° (NNE) 653 - -39.0°
Drops below altitude 10° 23:59:19 10° 108° (ESE) 2,014 - -39.0°
Sets 00:01:39 0° 110° (ESE) 2,925 - -38.9°
